Regional Weather Roundup
Issued by NWS Bismarck, ND

Home | Current Version | Previous Version | Text Only | Print | Product List | Glossary On
Versions: 1 2 3 4 5 6 7 8 9 10 11 12 13 14 15 16 17 18 19 20 21 22 23 24 25 26 27 28 29 30 31 32 33 34 35 36 37 38 39 40 41 42 43 44 45 46 47 48 49 50
357
ASUS43 KBIS 171810
RWRBIS

NWR BROADCAST TEXT
NATIONAL WEATHER SERVICE BISMARCK ND
100 PM CDT THU AUG 17 2017

NOTE: "FAIR" INDICATES FEW OR NO CLOUDS BELOW 12,000 FEET WITH NO
SIGNIFICANT WEATHER AND/OR OBSTRUCTIONS TO VISIBILITY.


CITY           SKY/WX    TMP DP  RH WIND       PRES   REMARKS
WILLISTON      SUNNY     79  56  45 CALM      29.84S
MINOT          MOSUNNY   83  47  28 SE9G20    29.86F
MINOT AFB      MOSUNNY   80  49  33 S10       29.85S
BISMARCK       SUNNY     79  52  38 SE13      29.89F
DICKINSON      SUNNY     80  53  39 W6        29.87S
GARRISON         N/A     76  56  49 S14       29.86F
HETTINGER ARPT SUNNY     80  50  34 S6        29.90F
JAMESTOWN      SUNNY     76  57  51 NW7       29.89S
CARRINGTON     FAIR      77  55  47 S3        29.92S
HAZEN          FAIR      79  55  44 S16G23    29.87F
LINTON         FAIR      75  52  43 SE9G16    29.92F
MANDAN         FAIR      77  52  41 SE14      29.89F
RUGBY          FAIR      77  50  38 S5        29.89S
STANLEY        FAIR      79  54  41 SE14G21   29.87F
TIOGA          FAIR      75  54  46 S5G12     29.85F
WATFORD CITY   FAIR      82  50  32 CALM      29.84S
$$

CITY           SKY/WX    TMP DP  RH WIND       PRES   REMARKS
GRAND FORKS    MOSUNNY   73  63  70 NW5       29.84S
GRAND FORKS AF MOSUNNY   73  62  68 N9        29.86S
DEVILS LAKE    MOSUNNY   74  53  48 W6        29.90S
FARGO          SUNNY     74  64  71 N8        29.83S
CANDO          FAIR      77  54  44 N5        29.91F
CAVALIER       FAIR      73  61  64 VRB6      29.85S
GRAFTON        FAIR      73  64  73 VRB5      29.86F
GWINNER        CLEAR     75  61  60 NW9       29.88R
LANGDON        FAIR      77  57  50 W8        29.89S
ROLLA          FAIR      73  52  46 VRB3      29.91S
WALHALLA       FAIR      75  75 100 CALM      29.85S
$$

CITY           SKY/WX    TMP DP  RH WIND       PRES   REMARKS
ABERDEEN       SUNNY     78  56  46 N9        29.90F
MOBRIDGE       SUNNY     80  54  40 SE12      29.87F
BUFFALO          N/A     83  48  29 N8        29.86S
RAPID CITY     SUNNY     86  49  27 N3        29.92F
GLASGOW        PTSUNNY   77  44  30 N21G28    29.89R
SIDNEY         SUNNY     84  47  27 NW9       29.85S
WOLF POINT     SUNNY     83  49  30 CALM      29.86F
GLENDIVE       MOSUNNY   85  39  19 NW15      29.88F
MILES CITY     PTSUNNY   85  35  16 SW10      29.92S
BAKER          SUNNY     86  35  16 N10       29.92S
$$

CITY           SKY/WX    TMP DP  RH WIND       PRES   REMARKS
BILLINGS       CLOUDY    73  44  35 SW8       30.01F
GREAT FALLS    MOSUNNY   81  37  20 N10G17    30.04R
REGINA         PTSUNNY   75  50  41 NW8       29.90S
ESTEVAN        CLOUDY    79  55  44 E12G18    29.84S
$$





USA.gov is the U.S. government's official web portal to all federal, state and local government web resources and services.